[[{"header":{"parameterUnit":"m.s-1","parameterCategory":1,"la1":30.2991,"la2":30.254,"lo1":-89.0895,"lo2":-89.0444,"dy":0.0017,"dx":0.0017,"nx":28,"ny":28,"refTime":"2025-12-14T03:00:00:Z","depth":0,"parameterNumber":2,"parameterNumberName":"U-component_of_WINDS"},"data":[0,0,0,0,0,0,0,0,0,0,0,0,0,0,0,0,0,0,0,0,0,0,0,0,0,0,0,0,0,0,0,0,0,0,0,0,0,0,0,0,0,0,0,0,0,0,0,0,0,0,0,0,0,0,0,0,0,0,-1.9989,-1.999,0,-2.0054,-2.0055,-2.0055,-2.0007,-2.0005,-2.0003,-2.0001,-2.0069,-2.0072,-2.0076,0,0,0,0,0,0,0,0,0,0,0,0,0,-1.9824,-1.9827,-1.9989,-1.999,-1.9991,-2.0054,-2.0055,-2.0056,-2.0007,-2.0005,-2.0002,-2.0,-2.0067,-2.0072,-2.0076,0,0,0,0,0,0,0,0,0,0,0,0,0,-1.9893,-1.9828,-1.9989,-1.9974,-1.9973,-2.0054,-2.0055,-2.0056,-2.0008,-2.0005,-2.0001,-1.9998,-2.0066,-2.0071,-2.0077,-2.0176,0,0,-2.0094,-2.0097,0,0,0,0,0,0,0,0,-1.9889,-1.9899,-1.9976,-1.9975,-1.9975,-2.0019,-2.0021,-2.0096,-2.0009,-1.9995,-2.0001,-1.9997,-2.0055,-2.0061,-2.008,-2.0179,-2.0182,-2.0095,-2.0098,-2.0101,-2.0102,0,0,0,0,0,0,0,-1.9884,-1.9896,-2.0015,-1.9977,-1.9976,-1.9964,-1.9971,-2.0035,-2.0042,-1.9996,-1.9992,-2.0001,-2.0054,-2.0075,-2.0082,-2.0183,-2.0095,-2.01,-2.0103,-2.0106,-2.0365,-2.0368,0,0,0,0,0,0,-1.9881,-1.9892,-2.0013,-2.0017,-1.9923,-1.997,-1.9977,-2.0008,-2.0041,-2.0043,-2.0003,-1.9998,-2.0067,-2.0075,-2.0084,-2.0202,-2.0101,-2.0106,-2.0109,-2.0362,-2.0366,-2.0369,0,0,0,0,0,0,-1.9877,-1.9892,-2.001,-1.9954,-1.9968,-1.9976,-2.0011,-2.0011,-2.0032,-2.0047,-2.0048,-2.0024,-2.0065,-2.0076,-2.0153,-2.0203,-2.0109,-2.0114,-2.0357,-2.0363,-2.0368,-2.0438,0,0,0,0,0,0,-1.9873,-1.9891,-1.9929,-1.9955,-1.9971,-2.0079,-2.0015,-2.0015,-2.0042,-2.0036,-2.0066,-2.0068,-2.0063,-2.0145,-2.0159,-2.021,-2.0118,-2.0353,-2.036,-2.0366,-2.0432,-2.0445,-2.0457,0,0,0,0,0,-1.9867,-1.9947,-1.9931,-1.9946,-2.0018,-2.0082,-2.0091,-2.0083,-2.0046,-2.0084,-2.0093,-2.0067,-2.0195,-2.0153,-2.0168,-2.0222,-2.035,-2.0358,-2.0365,-2.0426,-2.0443,-2.0457,0,0,0,0,0,0,-1.9927,-1.995,-1.9933,-2.0023,-2.0051,-2.0073,-2.0121,-2.0101,-2.014,-2.0133,-2.0122,-2.0129,-2.021,-2.0223,-2.0176,-2.0318,-2.0267,-2.0278,-2.0307,-2.0323,-2.0336,-2.0332,-2.0123,0,0,0,0,0,-1.9951,-2.0,-2.0017,-2.0095,-2.011,-2.0113,-2.014,-2.0132,-2.016,-2.0172,-2.0187,-2.0215,-2.0262,-2.0293,-2.0337,-2.0432,-2.0438,-2.0476,-2.0489,-2.05,-2.051,-2.0561,-2.0578,-2.0395,-2.0395,-2.0395,0,0,-2.0001,-2.0019,-2.0051,-2.0108,-2.0128,-2.018,-2.0123,-2.018,-2.0219,-2.0181,-2.0254,-2.0266,-2.0297,-2.0384,-2.0423,-2.0398,-2.0561,-2.051,-2.0518,-2.0523,-2.0571,-2.0588,-2.0604,-2.0401,-2.04,-2.0399,0,0,-2.0118,-2.0137,-2.0204,-2.0225,-2.0256,-2.0257,-2.0273,-2.0298,-2.0305,-2.0378,-2.035,-2.0395,-2.0476,-2.0499,-2.0522,-2.0645,-2.0623,-2.066,-2.0727,-2.0777,-2.0792,-2.0804,-2.0849,-2.0865,-2.067,-2.067,-2.067,0,-2.0176,-2.0253,-2.0241,-2.03,-2.0325,-2.0292,-2.0359,-2.038,-2.0425,-2.0443,-2.0414,-2.0513,-2.0532,-2.0624,-2.0654,-2.0673,-2.0691,-2.0657,-2.079,-2.0803,-2.0815,-2.0857,-2.0874,-2.0674,-2.0674,-2.0673,-2.0673,0,-2.0323,-2.0376,-2.0426,-2.0469,-2.05,-2.0563,-2.056,-2.0593,-2.0581,-2.0586,-2.066,-2.0681,-2.0728,-2.0749,-2.0738,-2.0839,-2.0822,-2.0792,-2.074,-2.0837,-2.0876,-2.0893,-2.068,-2.0679,-2.0678,-2.0676,0,0,-2.0482,-2.0516,-2.0535,-2.0553,-2.0584,-2.0625,-2.0686,-2.0731,-2.076,-2.079,-2.0842,-2.0909,-2.0881,-2.0906,-2.0897,-2.0941,-2.1038,-2.0905,-2.0906,-2.093,-2.115,-2.1174,-2.1193,-2.1022,-2.1025,-2.1028,-2.1148,0,-2.0602,-2.0708,-2.0698,-2.0799,-2.0848,-2.0815,-2.0868,-2.0893,-2.0898,-2.094,-2.0945,-2.0994,-2.0953,-2.0968,-2.1009,-2.1018,-2.1082,-2.1008,-2.107,-2.1073,-2.1065,-2.1214,-2.1239,-2.1352,-2.1163,-2.1166,-2.1168,0,-2.0756,-2.0791,-2.0897,-2.0919,-2.0939,-2.0987,-2.1027,-2.1068,-2.1094,-2.1095,-2.1122,-2.1106,-2.1167,-2.1112,-2.1196,-2.1146,-2.117,-2.1177,-2.1181,-2.1188,-2.1127,-2.1226,-2.1388,-2.1405,-2.1192,-2.119,-2.1188,0,-2.0862,-2.0936,-2.1009,-2.1025,-2.1053,-2.1088,-2.1101,-2.1124,-2.1152,-2.1187,-2.1204,-2.1246,-2.1269,-2.1302,-2.1296,-2.1257,-2.1382,-2.1326,-2.1384,-2.1385,-2.1414,-2.1413,-2.1583,-2.1428,-2.1427,-2.1427,-2.1427,0,-2.0998,-2.1064,-2.1057,-2.1102,-2.1174,-2.1162,-2.1234,-2.1243,-2.1264,-2.131,-2.1284,-2.1328,-2.1317,-2.1361,-2.1357,-2.1427,-2.1437,-2.1439,-2.1438,-2.1443,-2.1443,-2.146,-2.1452,-2.1431,-2.143,-2.143,-2.1429,0,-2.113,-2.1128,-2.1205,-2.1224,-2.1231,-2.1284,-2.13,-2.1342,-2.1344,-2.1402,-2.1415,-2.1419,-2.1468,-2.1465,-2.1521,-2.1518,-2.1605,-2.1594,-2.1596,-2.1594,-2.1653,-2.1648,-2.1842,-2.1867,-2.1694,-2.1695,-2.1697,0,-2.1217,-2.1267,-2.1291,-2.132,-2.1335,-2.1382,-2.1409,-2.1398,-2.1428,-2.1461,-2.1499,-2.1546,-2.1583,-2.1663,-2.167,-2.1713,-2.1703,-2.1768,-2.1709,-2.1712,-2.1705,-2.1702,-2.1707,-2.178,-2.1782,-2.1784,-2.1785,0,-2.1373,-2.1369,-2.1409,-2.1449,-2.1482,-2.1513,-2.1542,-2.1566,-2.1558,-2.1593,-2.1642,-2.1671,-2.1727,-2.1774,-2.1814,-2.1827,-2.1805,-2.1803,-2.1819,-2.1825,-2.1824,-2.1826,-2.1629,-2.1799,-2.1798,-2.1797,-2.1796,-2.1795,-2.1486,-2.1528,-2.1552,-2.1597,-2.1617,-2.1644,-2.1684,-2.169,-2.1731,-2.1776,-2.1767,-2.1823,-2.1847,-2.1898,-2.1915,-2.1958,-2.1935,-2.1958,-2.1964,-2.197,-2.1977,-2.1816,-2.1965,-2.1965,-2.1965,-2.1964,-2.1964,0,-2.164,-2.1653,-2.1695,-2.1735,-2.1771,-2.1745,-2.1774,-2.1806,-2.1856,-2.188,-2.1916,-2.1973,-2.2017,-2.2027,-2.207,-2.2103,-2.2094,-2.2115,-2.2113,-2.2116,-2.1995,-2.1977,-2.2121,-2.2121,-2.2121,-2.2121,-2.2121,-2.2121,-2.1725,-2.1796,-2.1794,-2.1874,-2.1886,-2.1941,-2.196,-2.1984,-2.2003,-2.2067,-2.2104,-2.211,-2.2128,-2.2172,-2.2211,-2.2213,-2.223,-2.2256,-2.2253,-2.2141,-2.2125,-2.211,-2.2093,-2.2259,-2.2259,-2.2371,-2.2372,-2.2373]},{"header":{"parameterUnit":"m.s-1","parameterCategory":1,"la1":30.2991,"la2":30.254,"lo1":-89.0895,"lo2":-89.0444,"dy":0.0017,"dx":0.0017,"nx":28,"ny":28,"refTime":"2025-12-14T03:00:00:Z","depth":0,"parameterNumber":3,"parameterNumberName":"V-component_of_WINDS"},"data":[0,0,0,0,0,0,0,0,0,0,0,0,0,0,0,0,0,0,0,0,0,0,0,0,0,0,0,0,0,0,0,0,0,0,0,0,0,0,0,0,0,0,0,0,0,0,0,0,0,0,0,0,0,0,0,0,0,0,-8.8084,-8.8086,0,-8.8217,-8.8218,-8.822,-8.8112,-8.8107,-8.8103,-8.8098,-8.8228,-8.8236,-8.8244,0,0,0,0,0,0,0,0,0,0,0,0,0,-8.7732,-8.7739,-8.8084,-8.8086,-8.8088,-8.8217,-8.8218,-8.822,-8.8113,-8.8107,-8.8102,-8.8096,-8.8226,-8.8235,-8.8244,0,0,0,0,0,0,0,0,0,0,0,0,0,-8.7877,-8.7742,-8.8084,-8.805,-8.8048,-8.8216,-8.8218,-8.8221,-8.8114,-8.8107,-8.81,-8.8094,-8.8223,-8.8234,-8.8245,-8.8453,0,0,-8.8281,-8.8286,0,0,0,0,0,0,0,0,-8.7869,-8.789,-8.8053,-8.8052,-8.8051,-8.8141,-8.8142,-8.8298,-8.8115,-8.8089,-8.8098,-8.809,-8.8204,-8.8217,-8.8257,-8.8459,-8.8465,-8.8282,-8.8289,-8.8294,-8.8297,0,0,0,0,0,0,0,-8.7859,-8.7884,-8.8136,-8.8055,-8.8054,-8.8026,-8.8039,-8.8171,-8.8183,-8.809,-8.8083,-8.81,-8.8202,-8.8246,-8.8259,-8.8467,-8.8281,-8.8292,-8.8299,-8.8303,-8.8845,-8.8852,0,0,0,0,0,0,-8.7853,-8.7876,-8.8132,-8.814,-8.7941,-8.8038,-8.8052,-8.8119,-8.8181,-8.8184,-8.8106,-8.8095,-8.8229,-8.8246,-8.8263,-8.851,-8.8294,-8.8304,-8.8311,-8.8837,-8.8846,-8.8854,0,0,0,0,0,0,-8.7846,-8.7877,-8.8127,-8.8006,-8.8036,-8.8051,-8.8127,-8.8125,-8.8168,-8.8193,-8.8194,-8.8149,-8.8225,-8.8247,-8.8407,-8.8513,-8.831,-8.832,-8.8828,-8.884,-8.885,-8.9006,0,0,0,0,0,0,-8.7837,-8.7875,-8.7956,-8.8009,-8.8043,-8.8271,-8.8133,-8.8132,-8.8189,-8.8176,-8.8233,-8.8236,-8.8221,-8.839,-8.8418,-8.8525,-8.8329,-8.8819,-8.8834,-8.8847,-8.8991,-8.9021,-8.9046,0,0,0,0,0,-8.7824,-8.7993,-8.796,-8.7992,-8.8144,-8.8277,-8.8296,-8.8277,-8.8198,-8.8278,-8.8294,-8.8234,-8.8497,-8.8407,-8.8438,-8.855,-8.8812,-8.8829,-8.8846,-8.8979,-8.9015,-8.9045,0,0,0,0,0,0,-8.795,-8.7999,-8.7964,-8.8155,-8.8213,-8.8259,-8.8359,-8.8316,-8.8396,-8.838,-8.8351,-8.8364,-8.8533,-8.8557,-8.8457,-8.8753,-8.8641,-8.8665,-8.8732,-8.8767,-8.8794,-8.8784,-8.8339,0,0,0,0,0,-8.8001,-8.8106,-8.8143,-8.8308,-8.8339,-8.8345,-8.8402,-8.8382,-8.844,-8.8463,-8.8491,-8.8548,-8.8642,-8.8706,-8.8794,-8.8994,-8.9004,-8.9085,-8.9113,-8.9135,-8.9156,-8.9263,-8.9299,-8.8909,-8.8909,-8.8909,0,0,-8.8105,-8.8145,-8.8213,-8.8334,-8.8377,-8.8485,-8.8366,-8.8486,-8.8565,-8.8481,-8.8634,-8.8656,-8.8717,-8.8898,-8.8979,-8.8923,-8.9266,-8.9157,-8.9175,-8.9183,-8.9284,-8.9321,-8.9353,-8.8921,-8.8919,-8.8917,0,0,-8.8351,-8.8392,-8.8535,-8.858,-8.8646,-8.8649,-8.8683,-8.8736,-8.8748,-8.8901,-8.884,-8.8933,-8.9098,-8.9144,-8.9189,-8.9452,-8.94,-8.9482,-8.9625,-8.9729,-8.976,-8.9787,-8.9881,-8.9915,-8.9502,-8.9503,-8.9503,0,-8.8472,-8.8635,-8.8613,-8.8738,-8.8792,-8.8722,-8.8865,-8.8909,-8.9001,-8.9039,-8.8976,-8.9181,-8.9217,-8.9407,-8.9472,-8.9511,-8.9548,-8.9475,-8.9758,-8.9785,-8.981,-8.9898,-8.9934,-8.9512,-8.9511,-8.951,-8.9509,0,-8.878,-8.8894,-8.9001,-8.9093,-8.9159,-8.9292,-8.9289,-8.9358,-8.9332,-8.9341,-8.9497,-8.9538,-8.9634,-8.9678,-8.9653,-8.9865,-8.9828,-8.9762,-8.9649,-8.9857,-8.994,-8.9974,-8.9526,-8.9522,-8.9519,-8.9517,0,0,-8.911,-8.9188,-8.9228,-8.9269,-8.9336,-8.9423,-8.9552,-8.9648,-8.9708,-8.9772,-8.9879,-9.002,-8.996,-9.0011,-8.999,-9.0082,-9.0287,-9.0004,-9.0005,-9.0055,-9.0522,-9.0571,-9.0611,-9.0253,-9.0259,-9.0264,-9.0516,0,-8.9359,-8.9586,-8.957,-8.9783,-8.9887,-8.9822,-8.9934,-8.9987,-8.9998,-9.0087,-9.0097,-9.0198,-9.0111,-9.0141,-9.0229,-9.0244,-9.038,-9.0225,-9.035,-9.0355,-9.0338,-9.0654,-9.0707,-9.0943,-9.0549,-9.0554,-9.0558,0,-8.968,-8.9758,-8.9983,-9.0035,-9.0078,-9.018,-9.0266,-9.0352,-9.0409,-9.0411,-9.0469,-9.0433,-9.0561,-9.0445,-9.062,-9.0515,-9.0565,-9.058,-9.0588,-9.0599,-9.047,-9.0674,-9.1018,-9.1054,-9.0609,-9.0605,-9.0601,0,-8.9898,-9.0059,-9.0214,-9.0251,-9.0316,-9.0389,-9.0419,-9.047,-9.0528,-9.0602,-9.064,-9.0727,-9.0775,-9.0843,-9.0831,-9.0747,-9.1009,-9.0892,-9.1013,-9.1014,-9.1071,-9.1068,-9.1429,-9.1104,-9.1103,-9.1103,-9.1102,0,-9.0178,-9.0318,-9.0313,-9.0409,-9.0563,-9.0542,-9.0694,-9.0715,-9.0761,-9.0858,-9.0806,-9.0898,-9.0876,-9.0967,-9.0958,-9.1104,-9.1126,-9.1129,-9.1125,-9.1135,-9.1134,-9.1167,-9.115,-9.1112,-9.111,-9.1108,-9.1106,0,-9.0447,-9.045,-9.0615,-9.0663,-9.0678,-9.079,-9.083,-9.0919,-9.0926,-9.1049,-9.1077,-9.1087,-9.1191,-9.1186,-9.1302,-9.1296,-9.1476,-9.1453,-9.1458,-9.1453,-9.1574,-9.1563,-9.1969,-9.202,-9.1662,-9.1665,-9.1668,0,-9.0626,-9.0733,-9.0793,-9.0855,-9.089,-9.0991,-9.1051,-9.1033,-9.1097,-9.1171,-9.1251,-9.135,-9.1429,-9.1597,-9.1613,-9.1702,-9.168,-9.1816,-9.1693,-9.1699,-9.1682,-9.1676,-9.1686,-9.1841,-9.1845,-9.1848,-9.1851,0,-9.0943,-9.0939,-9.1029,-9.1119,-9.1192,-9.1262,-9.1325,-9.1378,-9.1367,-9.1441,-9.1548,-9.1609,-9.1729,-9.1828,-9.1913,-9.194,-9.1894,-9.1889,-9.1922,-9.1932,-9.1931,-9.1933,-9.1524,-9.188,-9.1877,-9.1875,-9.1873,-9.1872,-9.1173,-9.1264,-9.1321,-9.1422,-9.1468,-9.1529,-9.1615,-9.1634,-9.1723,-9.1821,-9.1804,-9.1923,-9.1976,-9.2086,-9.2122,-9.2213,-9.2165,-9.2212,-9.2224,-9.2236,-9.225,-9.1917,-9.2229,-9.2228,-9.2227,-9.2226,-9.2226,0,-9.1487,-9.152,-9.1614,-9.1705,-9.1784,-9.1735,-9.1803,-9.1872,-9.1978,-9.2033,-9.2112,-9.2234,-9.2329,-9.2353,-9.2444,-9.2513,-9.2494,-9.2537,-9.2532,-9.2539,-9.2288,-9.2251,-9.2551,-9.2551,-9.2551,-9.2551,-9.2551,-9.2551,-9.166,-9.1812,-9.1815,-9.1989,-9.202,-9.2139,-9.2182,-9.2237,-9.228,-9.242,-9.2499,-9.2515,-9.2557,-9.2651,-9.2736,-9.274,-9.2776,-9.2828,-9.2824,-9.259,-9.2557,-9.2526,-9.2491,-9.2836,-9.2837,-9.3067,-9.307,-9.3071]}]]